Overview Statistics Trail Chart Weather Telemetry Raw packets
 

This is the latest recevied weather packets stored in our database for station/object N7ZAP. If no packets are shown the sender has not sent any weather packets the latest 10 day(s).

<< 25 26 27 28 29 30 31 >>
Time Temp. Humidity Pressure Rain* Wind** Luminosity Snow
1788523090 21.67° C 57% 1019.9 hPa 0 mm - - -
1788522785 21.67° C 56% 1019.8 hPa 0 mm - - -
1788522480 21.67° C 57% 1019.7 hPa 0 mm - - -
1788522180 21.67° C 55% 1019.8 hPa 0 mm - - -
1788521875 21.67° C 55% 1019.9 hPa 0 mm - - -
1788521574 21.67° C 55% 1019.8 hPa 0 mm - - -
1788521269 21.11° C 55% 1019.7 hPa 0 mm - - -
1788520965 21.11° C 57% 1019.6 hPa 0 mm - - -
1788520661 21.11° C 56% 1019.6 hPa 0 mm - - -
1788520356 21.11° C 57% 1019.5 hPa 0 mm - - -
1788520052 21.11° C 56% 1019.4 hPa 0 mm - - -
1788519751 21.67° C 58% 1019.4 hPa 0 mm - - -
1788519446 21.67° C 57% 1019.4 hPa 0 mm - - -
1788519140 21.67° C 57% 1019.4 hPa 0 mm - - -
1788518836 21.11° C 57% 1019.4 hPa 0 mm - - -
1788518531 21.67° C 56% 1019.5 hPa 0 mm - - -
1788518228 21.67° C 57% 1019.1 hPa 0 mm - - -
1788517923 21.67° C 56% 1019.2 hPa 0 mm - - -
1788517619 22.22° C 57% 1019.2 hPa 0 mm - - -
1788517313 22.22° C 55% 1019 hPa 0 mm - - -
1788517011 22.22° C 52% 1018.9 hPa 0 mm - - -
1788516706 22.22° C 52% 1018.5 hPa 0 mm - - -
1788516402 22.22° C 51% 1018.8 hPa 0 mm - - -
1788516097 22.78° C 52% 1018.8 hPa 0 mm - - -
1788515796 22.78° C 51% 1018.8 hPa 0 mm - - -

* Rain latest hour (hover to see other rain measurements)
** Current wind speed in m/s (hover to see current wind gust speed)